This is the latest recevied weather packets stored in our database for station/object KI4BIY. If no packets are shown the sender has not sent any weather packets the latest 10 day(s).
| Time | Temp. | Humidity | Pressure | Rain* | Wind** | Luminosity | Snow |
|---|---|---|---|---|---|---|---|
| 1778255538 | 21.11° C | 53% | 1015.3 hPa | 0 mm | - | 772 W/m² | - |
| 1778255234 | 21.67° C | 57% | 1015.4 hPa | 0 mm | - | 738 W/m² | - |
| 1778254932 | 21.11° C | 53% | 1015.4 hPa | 0 mm | - | 844 W/m² | - |
| 1778254628 | 21.11° C | 55% | 1015.4 hPa | 0 mm | - | 894 W/m² | - |
| 1778254325 | 21.11° C | 57% | 1015.1 hPa | 0 mm | - | 841 W/m² | - |
| 1778254022 | 20.56° C | 53% | 1015.4 hPa | 0 mm | - | 803 W/m² | - |
| 1778253718 | 21.11° C | 54% | 1015.7 hPa | 0 mm | - | 883 W/m² | - |
| 1778253414 | 20.56° C | 56% | 1015.6 hPa | 0 mm | - | 837 W/m² | - |
| 1778253111 | 21.11° C | 55% | 1015.7 hPa | 0 mm | - | 724 W/m² | - |
| 1778252808 | 20.56° C | 56% | 1015.4 hPa | 0 mm | - | 687 W/m² | - |
| 1778252504 | 20.56° C | 56% | 1015.6 hPa | 0 mm | - | 716 W/m² | - |
| 1778252200 | 20.56° C | 59% | 1015.7 hPa | 0 mm | - | 716 W/m² | - |
| 1778251897 | 20° C | 61% | 1015.5 hPa | 0 mm | - | 678 W/m² | - |
| 1778251595 | 20° C | 59% | 1015.8 hPa | 0 mm | - | 681 W/m² | - |
| 1778251292 | 20° C | 60% | 1016 hPa | 0 mm | - | 677 W/m² | - |
| 1778250989 | 20° C | 63% | 1016 hPa | 0 mm | - | 590 W/m² | - |
| 1778250686 | 20° C | 63% | 1016 hPa | 0 mm | - | 592 W/m² | - |
| 1778250383 | 20° C | 61% | 1016 hPa | 0 mm | - | 578 W/m² | - |
| 1778250079 | 20° C | 63% | 1015.8 hPa | 0 mm | - | 591 W/m² | - |
| 1778249776 | 19.44° C | 65% | 1016 hPa | 0 mm | - | 568 W/m² | - |
| 1778249474 | 19.44° C | 66% | 1015.9 hPa | 0 mm | - | 528 W/m² | - |
| 1778249171 | 18.33° C | 67% | 1016 hPa | 0 mm | - | 487 W/m² | - |
| 1778248868 | 17.78° C | 67% | 1015.9 hPa | 0 mm | - | 446 W/m² | - |
| 1778248563 | 17.78° C | 69% | 1015.6 hPa | 0 mm | - | 442 W/m² | - |
| 1778248259 | 16.67° C | 74% | 1015.9 hPa | 0 mm | - | 348 W/m² | - |
* Rain latest hour (hover to see other rain measurements)
** Current wind speed in m/s (hover to see current wind gust speed)